Regional Weather Roundup
Issued by NWS

Home | Current Version | Previous Version | Text Only | Print | Product List | Glossary Off
Versions: 1 2 3 4 5 6 7 8 9 10 11 12 13 14 15 16 17 18 19 20 21 22 23 24 25 26 27 28 29 30 31 32 33 34 35 36 37 38 39 40 41 42 43 44 45 46 47 48 49 50

457
ASUS43 KDMX 240106
RWRIA

WEATHER ROUNDUP FOR IOWA
NATIONAL WEATHER SERVICE DES MOINES IA
800 PM CDT THU MAR 23 2017

NOTE: "FAIR" INDICATES FEW OR NO CLOUDS BELOW 12,000 FEET WITH NO
SIGNIFICANT WEATHER AND/OR OBSTRUCTIONS TO VISIBILITY.

* - THESE STATIONS ARE NOT NWS STATIONS...THUS NOT UNDER NWS
QUALITY CONTROL.  THEY ALSO DO NOT REPORT WEATHER SUCH
AS PRECIPITATION OR FOG.

IAZ001>003-012>014-020>022-031>034-043>046-240200-
   NORTHWEST IOWA

CITY           SKY/WX    TMP DP  RH WIND       PRES   REMARKS
CARROLL *      CLOUDY    52  39  62 SE15      29.72R
CHEROKEE *     CLOUDY    50  40  69 SE10      29.69R
DENISON *      CLOUDY    59  43  55 SE12G20   29.66F
LE MARS *      MOCLDY    57  43  58 VRB5G16   29.67S
ORANGE CITY *  CLOUDY    54  45  71 SE5       29.69R
SHELDON *      CLOUDY    50  50 100 SE9       29.67S
SIOUX CITY     CLOUDY    58  44  60 SE9       29.65
SPENCER        MOCLDY    48  40  73 SE12      29.72
STORM LAKE *   PTCLDY    48  39  71 SE17      29.69F
$$

IAZ055>058-069>071-079>083-090>094-240200-
   SOUTHWEST IOWA

CITY           SKY/WX    TMP DP  RH WIND       PRES   REMARKS
ATLANTIC *     PTCLDY    70  52  52 SE9       29.70R
AUDUBON *      CLOUDY    57  43  58 SE8       29.71F
CLARINDA *     PTCLDY    73  52  46 S12       29.73R
COUNCIL BLFS * CLOUDY    72  52  49 S16       29.66R
CRESTON *      CLEAR     70  48  46 S16G23    29.74R
HARLAN  *      CLOUDY    70  52  52 S9G15     29.71S
LAMONI         CLEAR     71  47  42 S12G20    29.75
RED OAK *      CLOUDY    75  52  43 S13G21    29.68F
SHENANDOAH *   CLOUDY    75  52  43 S21       29.68F
$$

IAZ047>049-059>061-072>074-084-240200-
   CENTRAL IOWA

CITY           SKY/WX    TMP DP  RH WIND       PRES   REMARKS
AMES           PTCLDY    49  39  68 SE10      29.78
ANKENY *       PTCLDY    50  37  62 SE14G20   29.76F
BOONE *        CLOUDY    48  37  66 SE14      29.76R
CHARITON *     CLEAR     61  39  44 SE18G28   29.76S
DES MOINES     CLOUDY    53  38  56 E10       29.75F
GRINNELL*      CLOUDY    46  37  71 SE14      29.82F
MARSHALLTOWN   MOCLDY    47  38  71 SE22G28   29.77
NEWTON *       MOCLDY    48  37  66 SE16      29.77F
PELLA *        CLOUDY    50  38  63 SE9       29.80F
PERRY *          N/A     51  36  56 E9        29.76R
$$

IAZ004>006-015-016-023>025-035-036-240200-
   NORTH CENTRAL IOWA

CITY           SKY/WX    TMP DP  RH WIND       PRES   REMARKS
ALGONA *       CLOUDY    45  39  81 SE14      29.77S
CLARION *      CLOUDY    45  41  87 SE18G33   29.75F
ESTHERVILLE    MOCLDY    39  36  89 E13       29.73  WCI  31
FORT DODGE *   CLOUDY    46  36  66 NE6       29.79R
MASON CITY     CLOUDY    40  37  89 SE16G32   29.82  WCI  31
FOREST CITY *    N/A     39  37  93 SE7       29.81R WCI  34
WEBSTER CITY * MOCLDY    46  37  71 E22       29.71F
IOWA FALLS *     N/A     44  37  77 NE8       29.85R
$$

IAZ007>011-017>019-026>030-037>042-050>054-066-240200-
   NORTHEAST IOWA

CITY           SKY/WX    TMP DP  RH WIND       PRES   REMARKS
CEDAR RAPIDS   CLOUDY    43  38  82 SE13      29.86
CHARLES CITY * CLOUDY    41  41 100 SE18      29.86R
CLINTON *      PTCLDY    42  35  76 SE13      29.95S
DECORAH *      CLOUDY    39  34  81 SE16G24   29.86F WCI  30
DUBUQUE        MOCLDY    39  32  76 SE9       29.95  WCI  33
MONTICELLO *   MOCLDY    39  36  87 E10       29.92R WCI  32
OELWEIN *      CLOUDY    41  37  87 SE20G29   29.86
WATERLOO       CLOUDY    41  36  82 SE13      29.85F
$$

IAZ064-065-067-068-078-240200-
   EAST CENTRAL IOWA

CITY           SKY/WX    TMP DP  RH WIND       PRES   REMARKS
DAVENPORT      CLOUDY    44  35  70 S16G29    29.91
IOWA CITY      PTCLDY    46  38  73 SE12      29.89
MUSCATINE *    MOCLDY    46  37  71 SE17G23   29.89F
QUAD CITIES    CLOUDY    44  35  70 SE9       29.91
$$

IAZ062-063-075>077-085>089-095>099-240200-
   SOUTHEAST IOWA

CITY           SKY/WX    TMP DP  RH WIND       PRES   REMARKS
BURLINGTON     PTCLDY    47  41  80 SE14      29.90
FAIRFIELD *    CLOUDY    50  39  66 SE15      29.85F
FORT MADISON * PTCLDY    48  39  71 SE12      29.91F
KEOKUK *       CLEAR     50  41  71 SE12G20   29.89F
OSKALOOSA *      N/A     49  39  67 SE16      29.81F
CENTERVILLE *    N/A     57  39  51 SE16G22   29.82F
OTTUMWA        CLEAR     53  38  56 SE15      29.81
WASHINGTON *   MOCLDY    46  41  81 SE20      29.86F
$$

ABBREVIATIONS USED IN REMARKS
   TC - TEMPERATURES IN CELSIUS
  WCI - WIND CHILL INDEX
   HX - HEAT INDEX
  VSB - VISIBILITY
$$





USA.gov is the U.S. government's official web portal to all federal, state and local government web resources and services.